Theta_e
297 298 297 297 297 297 297 297 297 298 298 298 298 299 299 299 299 299 299 299 299 300 300 300 300 301 301 302 302 303 302 301 301 301 301 301 302 302 302 304 304 304 305 305 305 306 306 306 306 307 308 307 307 308 308 307 307 311 314 314 313 311 308 307 306 307 306 304 303 303 303 304 304 303 302 302 301 300 299 298 298 298 297 297 297 296 296 295
298 298 298 298 297 298 298 297 298 297 298 298 298 298 299 299 299 299 299 299 299 300 300 300 300 300 301 301 302 302 302 302 301 301 301 299 299 300 302 304 304 304 304 304 304 305 305 305 306 307 308 306 306 308 309 307 307 309 311 311 309 306 304 304 304 304 304 303 303 302 302 303 302 302 302 302 301 300 300 298 298 297 296 296 296 295 295 295
298 298 298 298 298 298 298 298 298 297 298 298 298 298 298 299 299 299 299 299 299 300 300 300 300 301 301 301 301 301 302 303 302 300 300 299 299 300 303 304 304 304 304 304 303 303 304 304 305 307 306 305 305 307 307 307 306 306 308 308 304 303 302 302 302 302 303 303 302 301 301 301 300 301 302 301 300 299 299 298 297 296 296 295 295 295 294 294
298 298 298 298 298 298 298 298 298 298 298 298 298 299 299 299 299 299 299 299 299 300 300 300 300 300 301 302 302 302 302 304 302 299 300 299 299 301 303 304 304 304 304 303 303 303 304 304 306 305 306 305 304 305 304 304 305 304 305 305 303 302 301 301 301 301 301 302 302 301 301 300 300 300 301 301 301 299 298 297 296 296 295 295 295 295 294 294
298 298 298 298 298 298 298 298 298 298 298 298 299 298 299 299 299 299 299 299 299 300 300 300 301 301 300 302 302 302 303 304 301 299 299 299 299 301 303 304 304 304 304 304 304 305 305 306 306 304 305 305 305 304 302 302 303 302 302 302 302 302 300 300 300 299 300 301 301 301 300 300 299 299 299 300 299 298 297 296 296 296 295 294 294 294 294 294
298 298 298 298 299 298 298 298 298 298 298 298 298 298 299 299 299 299 299 299 299 299 300 300 300 301 301 301 301 302 303 302 299 299 299 299 300 302 303 304 305 305 304 304 305 305 305 305 305 304 303 303 303 303 302 302 303 302 300 300 300 300 300 299 299 299 300 300 300 300 300 299 299 298 297 298 297 296 296 296 296 296 295 295 294 294 294 294
298 298 298 298 299 298 298 298 298 298 298 298 298 298 299 299 300 299 299 299 299 299 300 300 300 301 302 301 301 301 301 300 298 299 299 299 300 302 304 304 305 305 305 304 305 305 304 304 304 304 303 303 302 302 301 301 302 301 299 299 299 298 298 298 298 299 299 299 299 299 299 299 299 298 297 297 296 296 296 296 296 295 295 295 294 294 294 293
298 298 298 298 299 298 299 298 298 298 299 299 299 299 299 300 300 299 299 299 300 300 300 300 300 300 301 301 303 302 300 299 299 299 299 299 300 302 304 304 304 305 304 303 304 305 304 304 303 304 304 303 302 302 302 301 301 300 299 299 299 298 298 298 298 298 298 299 299 299 298 298 298 298 297 296 296 295 295 295 295 295 295 295 294 294 294 293
298 298 298 298 299 298 299 299 299 299 299 299 299 299 299 300 300 300 300 300 300 300 300 300 300 301 301 301 304 303 299 298 298 298 299 299 300 302 303 303 304 304 304 303 304 305 304 303 302 303 303 302 303 303 303 303 301 299 299 299 299 298 298 298 298 298 298 299 300 299 298 298 298 298 297 296 296 296 295 295 295 295 294 294 295 294 294 294
298 298 298 298 298 299 299 299 299 299 300 300 300 300 300 300 300 300 300 300 300 300 300 300 300 301 301 302 304 301 298 298 298 299 299 299 301 302 302 302 302 303 303 302 302 302 303 303 303 303 302 302 302 302 302 302 300 299 300 299 299 299 299 299 299 298 299 299 299 299 298 297 298 298 297 296 295 296 295 295 295 294 294 294 294 294 294 294
298 298 298 298 299 299 299 299 300 300 300 299 300 300 300 300 300 300 301 301 300 300 300 300 301 301 301 302 303 300 298 298 298 299 299 299 301 301 300 301 301 302 302 302 301 300 302 304 304 304 303 302 301 300 300 300 300 300 300 300 300 300 299 299 299 299 299 299 298 299 299 298 298 298 296 296 295 295 295 294 294 294 294 293 294 294 294 293
297 298 298 298 299 299 299 299 300 300 300 299 299 300 300 300 300 301 301 301 300 300 300 300 301 301 301 301 300 298 298 298 298 299 299 299 299 299 299 300 301 301 301 302 301 300 301 304 304 303 302 302 301 301 299 299 300 300 301 302 301 301 300 299 299 298 299 299 297 298 301 299 297 297 296 296 295 295 295 294 294 294 294 293 294 294 294 293
296 297 298 298 299 299 299 299 300 300 300 300 299 299 300 300 300 301 301 301 300 300 300 300 300 301 302 301 298 298 298 298 299 299 299 299 299 299 299 300 301 301 301 301 300 300 302 303 303 301 301 302 301 301 301 299 301 301 302 303 303 303 301 299 298 298 299 299 296 298 303 301 297 296 296 295 295 294 295 294 294 294 294 294 293 294 294 293
295 297 297 298 299 299 299 299 300 300 300 300 299 299 300 301 301 301 301 301 300 301 300 300 300 300 302 300 298 298 298 298 299 299 299 299 299 299 299 299 300 301 301 301 300 301 302 303 302 301 301 300 300 300 302 301 301 302 302 303 304 304 302 299 298 299 300 299 297 299 304 301 297 296 296 295 295 295 295 294 294 294 294 294 293 293 293 293
295 296 296 297 298 299 299 299 300 300 300 300 299 299 300 300 301 301 301 301 301 301 300 301 300 301 303 300 298 298 298 299 298 298 299 299 299 299 299 299 300 300 301 301 301 301 302 303 302 301 300 300 301 302 302 302 302 302 303 304 304 304 302 300 298 298 299 299 298 300 303 301 297 296 296 295 295 295 295 295 294 294 294 294 293 293 293 293
296 296 296 297 297 298 298 299 299 299 300 299 299 300 300 300 301 301 301 300 301 301 301 301 299 302 304 301 299 299 298 298 298 297 298 299 298 298 299 299 299 300 300 300 301 301 302 302 301 300 301 301 302 303 303 303 303 302 303 304 303 303 303 301 299 298 297 298 299 300 302 300 297 297 296 295 295 295 295 295 294 294 294 294 294 293 293 293
296 296 297 297 297 298 298 299 300 300 300 300 299 299 300 300 300 301 301 300 301 301 301 301 299 301 303 300 299 299 298 297 297 297 298 299 298 297 298 299 299 298 300 301 301 302 302 303 302 301 302 301 301 304 304 303 303 303 303 302 301 301 302 302 301 299 297 298 300 300 301 299 297 297 296 295 295 295 295 295 294 294 295 294 294 294 293 293
296 296 297 297 297 298 299 300 301 302 301 301 300 299 300 301 300 300 301 301 301 302 301 301 300 303 303 299 299 298 297 297 297 297 297 299 298 297 298 298 297 299 303 304 301 302 303 304 304 304 303 301 300 303 304 303 302 302 302 302 301 300 301 301 300 299 298 298 299 300 300 298 297 296 296 296 295 295 295 295 295 295 295 294 294 294 294 293
296 297 297 297 297 298 299 301 301 301 302 302 300 300 301 302 302 300 299 300 302 303 303 301 300 303 302 299 298 297 296 297 297 297 297 298 298 298 297 297 299 302 305 305 301 301 302 304 305 304 302 300 298 298 301 301 300 302 302 302 302 301 301 300 300 299 298 298 299 299 299 298 296 296 296 296 295 295 296 295 295 295 295 294 294 294 294 294
296 296 297 297 297 298 299 300 301 301 302 301 300 301 303 306 307 303 298 299 299 299 301 300 299 301 301 299 297 297 298 297 298 298 297 298 298 299 299 299 302 303 301 301 301 300 302 303 303 301 299 297 296 296 296 297 299 301 302 302 302 302 301 300 300 300 298 299 298 297 298 297 296 296 296 296 296 295 296 295 295 295 295 295 294 294 294 294
295 295 297 297 297 298 299 300 300 301 302 302 301 302 305 307 308 304 299 299 297 295 298 298 297 299 298 298 296 295 298 300 300 298 297 298 299 299 300 301 304 302 299 298 300 301 302 303 300 297 296 295 294 295 294 297 299 301 303 303 303 303 302 301 300 300 298 299 299 296 296 297 296 296 296 296 296 295 296 296 296 295 295 295 295 295 294 294
295 295 296 297 298 298 298 300 300 301 302 302 302 302 301 300 302 300 299 301 298 295 297 296 297 298 297 296 295 294 297 300 301 299 296 298 301 301 300 301 302 300 299 300 301 302 302 300 297 295 294 293 294 295 295 298 301 302 303 303 304 303 302 301 300 299 298 299 300 297 296 298 297 296 296 296 296 296 296 296 296 296 295 295 295 295 294 294
295 295 296 297 298 298 298 299 300 301 301 301 302 299 299 299 299 298 299 302 300 297 298 298 298 299 298 298 295 296 299 298 299 298 296 298 301 300 300 300 300 299 300 302 303 303 300 298 296 293 293 294 295 295 296 299 301 302 302 302 303 301 301 303 301 299 299 298 299 298 298 299 298 297 296 296 296 296 296 296 296 296 296 295 295 295 295 294
295 295 296 297 298 298 298 299 300 301 301 301 300 299 300 300 299 298 298 301 301 299 298 297 297 297 298 297 295 297 299 296 297 297 295 297 299 299 299 298 299 299 298 300 302 301 298 296 294 293 293 295 296 297 298 301 301 301 301 301 301 299 299 301 300 300 300 298 298 298 299 300 300 298 297 297 296 296 296 296 295 295 296 296 296 295 295 294
295 296 296 296 298 298 298 298 298 299 299 299 300 299 299 300 299 298 300 303 303 300 298 297 297 297 296 296 296 296 297 296 296 295 294 295 297 299 298 297 299 299 297 299 300 298 297 295 293 293 294 295 296 297 297 299 301 300 299 298 298 297 297 297 298 300 301 301 299 297 300 302 301 299 299 298 297 296 296 296 295 295 295 295 295 295 295 295
295 296 296 296 297 299 299 298 296 297 298 297 297 299 298 299 299 298 303 307 303 301 301 300 299 298 297 297 296 294 299 299 295 294 294 294 295 298 299 298 299 298 297 297 299 298 297 295 293 294 295 296 297 297 295 296 300 299 297 296 296 296 297 297 298 300 302 303 300 297 300 303 302 301 300 299 297 297 296 296 296 296 295 295 295 295 295 295
295 295 296 296 297 299 300 298 295 296 299 296 296 298 297 298 298 298 304 309 303 300 301 302 299 298 298 297 295 297 302 300 296 295 294 294 295 297 299 298 299 298 295 297 300 298 297 297 296 295 296 298 298 298 295 294 298 299 295 294 295 296 297 297 298 301 302 303 301 298 300 301 302 302 300 298 298 297 297 296 296 296 296 295 295 295 295 295
295 295 295 296 296 298 298 296 295 295 296 295 295 297 297 298 298 299 306 307 302 298 299 300 299 297 297 297 297 299 299 297 299 299 294 293 295 298 300 298 297 297 294 298 302 298 296 297 296 296 298 299 297 296 295 294 297 298 294 294 296 295 297 297 298 302 302 301 302 301 300 301 303 303 298 297 297 297 297 297 296 296 296 295 295 295 295 295
295 295 295 296 296 297 297 297 296 295 295 295 296 297 297 297 297 301 308 304 299 297 297 299 299 298 298 299 299 298 297 296 298 298 294 295 295 297 298 296 296 297 295 299 301 297 295 296 295 296 298 298 296 295 294 294 296 296 294 295 296 296 297 298 300 303 301 301 302 301 299 300 303 303 300 297 298 298 298 298 297 296 296 295 295 295 295 294
295 295 295 296 296 297 297 297 296 295 295 295 296 297 297 298 301 306 307 302 299 298 297 299 299 297 297 301 300 298 297 297 296 296 297 296 296 296 295 294 296 298 297 298 298 296 294 295 295 296 296 295 295 295 293 293 295 295 295 297 298 297 297 298 300 300 301 301 300 297 297 298 300 302 301 299 298 298 298 298 297 296 296 296 295 295 295 294
295 295 295 296 297 296 298 298 297 296 296 296 298 297 298 302 308 310 304 300 299 300 299 299 298 295 296 299 299 297 297 297 295 297 297 296 297 297 296 296 297 298 299 300 298 296 295 296 296 294 294 294 295 295 293 293 294 295 297 298 299 298 297 298 298 298 301 302 297 294 294 296 299 301 300 298 297 296 297 297 297 297 296 296 295 295 294 294
294 295 295 296 296 296 297 297 298 298 297 297 297 297 301 306 309 307 303 300 300 300 299 298 297 295 294 295 295 295 296 297 295 295 295 295 295 294 295 295 295 299 302 300 299 298 297 295 295 294 293 293 295 297 296 295 296 297 298 298 300 301 299 300 299 298 300 300 295 293 294 295 298 300 299 297 297 296 296 296 296 296 296 296 295 295 294 293
294 295 295 295 296 296 297 296 298 299 299 298 297 299 306 311 306 301 301 302 299 297 296 296 296 294 294 296 296 293 294 295 295 296 294 294 295 293 294 293 292 297 300 299 299 300 299 296 294 295 295 293 295 298 298 297 297 298 298 298 300 301 300 302 300 298 299 298 293 292 294 297 299 299 297 296 296 294 293 293 294 295 296 296 295 294 294 293
295 295 295 295 295 295 297 297 296 299 299 298 301 305 307 308 305 300 300 301 296 294 295 296 295 294 294 296 295 293 295 294 294 296 296 295 296 295 295 294 293 294 296 297 298 298 301 300 296 295 295 294 295 295 295 296 296 297 296 296 298 298 298 301 300 299 299 298 295 293 295 300 301 298 295 294 293 292 292 292 294 295 295 295 294 293 293 293
296 296 295 295 295 295 297 297 296 298 299 301 308 311 308 306 303 301 301 298 293 294 296 294 294 296 296 295 293 292 295 295 293 295 296 296 296 295 293 293 293 293 294 298 297 295 299 300 295 293 293 293 294 293 293 295 296 296 295 296 298 297 297 297 296 295 296 296 297 296 297 300 299 295 293 293 293 292 292 293 293 294 293 293 293 292 292 292
296 296 296 295 295 295 297 297 296 297 299 307 316 311 305 303 298 299 301 297 294 295 296 296 295 297 298 295 294 294 294 294 294 295 295 294 294 294 293 292 292 292 294 296 296 295 299 299 294 293 293 292 292 293 292 294 297 297 296 297 296 294 295 297 294 291 291 296 299 297 298 299 298 296 293 293 294 293 292 292 292 293 292 292 292 293 292 292
295 296 296 295 295 296 296 297 297 297 300 312 317 305 298 297 294 296 297 295 294 293 294 298 297 296 299 298 296 296 295 294 294 296 296 294 294 294 293 293 292 291 292 293 294 294 296 299 295 293 295 292 290 292 293 292 294 297 297 296 294 292 293 295 296 295 295 299 299 296 297 298 298 298 296 294 294 294 293 293 292 292 292 292 292 293 292 292
294 296 297 295 295 296 297 298 296 297 305 313 313 301 295 295 293 293 293 293 293 292 294 299 297 294 297 298 297 295 295 297 296 296 296 295 296 294 292 293 292 291 291 292 294 292 293 298 296 292 294 293 290 293 296 294 293 295 295 294 294 295 296 295 296 297 298 298 297 296 296 296 297 297 296 295 294 294 294 293 293 293 292 292 292 292 292 292
295 298 301 297 295 296 297 297 295 301 312 313 308 301 296 296 294 292 292 293 293 294 295 297 296 295 295 296 296 294 294 297 296 295 296 295 296 295 292 293 292 291 291 291 293 293 291 296 298 293 292 292 293 295 297 296 294 294 294 293 292 294 295 295 294 295 296 297 297 296 296 297 297 296 295 295 294 293 293 293 293 292 292 292 292 292 292 292
295 301 304 296 294 297 296 296 300 308 312 305 300 298 296 297 296 292 291 292 293 294 294 294 295 296 297 296 295 293 293 295 295 295 296 295 295 294 293 293 292 291 291 291 292 293 291 294 297 296 293 293 295 295 295 295 294 295 295 295 294 293 294 294 293 292 294 296 296 295 296 298 297 294 294 294 293 292 292 292 292 292 292 292 292 292 292 292
296 304 305 296 295 296 296 300 302 300 301 297 295 296 295 297 296 292 290 290 292 293 292 293 293 294 297 297 294 292 293 295 295 295 296 294 295 295 293 292 291 290 291 292 292 293 293 293 295 296 296 297 296 292 291 291 292 294 295 295 295 294 294 295 295 292 291 293 293 293 295 297 295 293 293 293 292 291 291 291 292 292 292 292 292 292 292 292
301 306 301 296 296 296 300 305 295 289 294 296 294 295 296 295 294 293 291 290 291 293 292 293 293 292 294 296 294 293 294 295 295 295 295 294 294 294 292 290 289 290 291 292 292 292 292 292 294 296 296 295 292 289 288 289 289 291 292 293 293 293 294 296 297 293 291 292 291 290 292 295 293 292 292 292 291 291 291 291 292 292 292 292 292 291 292 291
306 304 297 295 295 296 303 307 297 291 294 293 291 292 293 293 294 293 292 291 292 293 295 295 293 293 293 292 293 294 294 294 295 294 294 294 293 293 291 289 288 290 291 292 292 291 291 291 294 297 295 292 289 288 288 287 289 291 291 291 292 292 292 293 293 292 292 293 293 292 294 295 293 292 292 292 291 291 292 292 292 292 292 292 292 291 291 291
302 298 297 296 295 299 305 305 303 299 294 293 294 293 292 292 293 293 292 292 293 293 295 295 292 292 291 289 291 292 293 294 294 293 293 294 293 291 289 288 289 290 292 292 292 292 293 293 294 296 297 295 293 293 292 290 291 293 293 291 290 290 290 290 289 289 291 294 294 294 296 296 294 292 292 291 291 292 293 293 292 292 292 292 291 291 291 291
298 298 299 297 294 298 300 298 303 304 296 296 298 295 294 293 291 291 291 292 291 291 293 293 291 292 291 289 291 291 290 293 293 292 291 292 292 289 288 289 289 290 292 293 292 292 292 293 293 295 297 298 298 297 296 294 292 292 292 291 290 290 290 291 291 291 292 293 293 294 295 295 294 294 293 293 293 293 293 292 292 292 292 292 291 291 291 291
301 302 303 302 296 295 293 290 295 302 299 299 299 295 295 296 292 290 291 292 292 291 292 292 291 292 292 291 294 294 291 290 291 292 292 292 291 289 288 288 289 290 293 293 292 290 290 290 292 295 296 296 298 297 293 292 293 293 292 291 291 290 290 291 291 292 292 292 292 293 293 293 294 293 293 293 293 293 292 292 292 291 291 291 291 291 291 291
300 302 301 302 300 298 296 292 293 298 299 299 298 295 296 296 293 292 291 291 292 291 292 292 292 293 294 294 296 296 292 290 291 292 293 292 290 289 287 287 289 291 293 292 290 290 290 291 292 293 295 294 295 294 291 290 291 292 292 292 291 291 290 291 292 292 292 292 293 293 292 292 293 292 293 293 292 292 292 291 291 291 291 291 291 291 291 290
297 297 293 294 298 300 299 296 294 296 297 296 295 294 296 296 294 295 293 291 292 292 292 294 293 294 294 293 295 296 294 293 294 293 292 291 290 289 289 288 288 291 292 291 290 290 292 292 290 290 294 293 291 292 291 290 290 291 291 291 291 291 291 291 291 292 292 292 293 293 292 292 292 292 292 292 292 292 291 291 291 291 290 290 290 290 290 290
294 294 289 289 295 297 295 292 293 297 299 298 296 295 297 298 296 295 292 292 293 292 292 295 295 294 293 292 293 296 296 296 296 294 293 292 291 290 291 290 289 289 290 291 290 289 291 292 290 289 292 292 291 291 290 289 290 290 290 290 290 290 291 291 291 291 291 291 292 291 291 291 291 291 291 291 291 291 291 290 290 290 290 290 290 290 290 290
294 296 293 292 293 293 292 290 293 299 298 296 298 296 295 298 296 293 292 293 296 294 292 294 294 293 292 291 292 295 295 294 295 294 292 293 292 291 291 292 292 290 290 291 289 288 290 292 290 288 291 293 292 290 289 289 290 290 290 290 290 290 290 290 290 290 290 291 290 290 291 291 291 291 291 291 291 290 290 290 290 290 290 290 290 290 290 290
293 293 293 297 297 294 293 292 293 298 297 296 298 296 295 297 295 293 293 291 293 294 293 294 294 292 291 291 292 293 293 292 293 292 291 292 292 292 291 292 292 292 291 290 289 289 290 290 289 289 292 293 291 290 291 291 290 290 291 292 292 291 290 290 290 290 290 291 291 291 291 291 291 292 291 291 291 290 290 290 290 291 291 291 290 290 290 290
292 291 291 298 300 294 293 293 292 296 298 297 297 295 295 296 293 293 295 292 290 292 292 292 294 293 292 293 293 294 293 292 292 291 291 291 291 291 291 291 292 293 292 290 289 288 288 290 290 290 292 293 291 290 291 290 292 295 295 294 293 291 290 290 290 290 290 290 291 291 292 292 292 292 291 291 291 291 291 291 291 291 291 290 290 290 290 290
Wind_Speed
18 17 17 16 16 15 15 14 12 13 13 14 15 18 20 20 21 20 19 19 17 19 22 30 26 8 13 13 6 5 11 28 36 41 41 32 36 34 30 27 22 19 16 15 15 10 8 11 9 5 5 6 5 3 4 7 5 2 2 7 6 5 5 4 5 5 8 9 8 7 6 10 12 9 7 10 18 18 18 18 15 15 15 13 11 10 11 13
17 17 17 17 16 16 15 14 12 12 13 13 16 18 20 21 21 21 20 20 18 17 16 23 33 16 8 12 11 8 4 16 26 32 36 38 39 35 29 25 19 15 14 15 16 13 10 8 8 6 8 6 5 4 5 5 7 6 4 7 6 6 6 6 8 9 9 11 11 11 10 12 11 8 5 11 16 15 17 15 13 15 14 14 13 13 13 13
17 17 17 17 16 16 15 14 12 12 12 13 15 18 20 21 21 22 21 22 19 16 14 16 30 26 3 9 11 8 6 7 16 26 38 41 39 35 30 25 17 12 14 15 13 12 9 6 8 10 10 8 6 8 9 5 6 7 6 9 8 8 10 10 11 11 11 13 14 13 12 16 15 8 7 13 17 16 16 12 11 13 13 12 13 14 14 15
17 16 16 16 16 16 15 14 13 11 12 12 14 17 19 19 19 20 20 23 22 16 11 8 20 33 21 1 7 6 7 4 12 24 38 40 38 33 29 27 20 13 13 15 13 11 8 6 12 14 10 9 8 11 12 8 4 6 7 10 9 10 12 11 10 10 10 11 13 13 13 16 15 12 9 7 11 14 12 11 10 10 10 10 10 12 13 13
16 16 15 16 15 16 15 14 13 11 11 10 12 16 17 18 17 19 20 22 25 20 11 4 7 25 34 19 3 4 6 2 11 28 37 36 36 30 27 28 26 20 18 17 13 13 12 10 15 14 9 8 10 11 11 9 7 8 11 12 10 9 11 10 8 8 7 9 11 12 12 11 10 14 15 11 11 10 8 9 9 8 9 9 9 9 11 12
15 15 15 16 15 16 16 15 14 12 10 9 11 14 15 16 16 18 20 21 26 24 14 5 1 6 22 28 25 17 6 3 11 31 34 31 32 28 25 28 25 24 26 23 17 17 18 15 15 11 9 11 15 14 11 9 7 11 12 12 13 10 12 11 9 9 7 11 12 12 12 9 12 15 15 16 16 10 9 9 9 9 8 9 10 10 11 12
15 15 15 15 15 15 16 15 14 13 11 11 12 14 14 14 16 17 18 21 24 26 19 8 3 2 2 15 30 31 15 5 17 29 29 28 29 25 23 25 24 24 27 26 20 16 17 17 15 11 11 13 15 17 19 17 14 17 14 12 15 14 15 12 11 11 11 15 14 12 14 12 15 14 11 15 15 11 11 10 10 10 9 11 11 11 12 13
14 14 14 14 14 15 15 15 15 14 14 14 14 13 12 12 15 15 17 19 20 27 24 13 7 3 2 2 10 18 12 10 23 29 25 24 27 24 20 21 24 26 28 27 20 15 14 15 13 9 13 12 11 14 18 20 17 16 16 12 14 14 15 13 11 12 11 12 12 15 17 14 15 14 13 15 12 10 10 10 10 10 10 11 12 12 13 13
13 13 14 13 13 13 14 15 15 15 15 16 16 14 10 11 13 13 15 17 17 21 23 22 15 9 9 2 1 9 9 15 24 25 21 22 25 24 21 21 23 23 25 27 25 19 12 13 14 10 13 11 10 10 11 15 11 11 16 14 14 14 13 12 12 11 10 7 9 16 15 10 8 7 12 13 9 9 8 9 9 9 10 10 10 12 12 13
12 12 13 12 12 12 12 14 14 16 17 18 18 15 10 9 11 12 13 14 15 16 15 18 23 25 18 4 5 10 9 18 23 21 17 20 24 23 26 27 24 22 20 22 24 18 10 10 11 10 11 10 11 12 13 16 11 12 18 16 16 14 10 10 11 9 9 9 10 16 14 10 6 3 7 8 7 7 6 8 8 8 10 9 10 10 11 12
11 11 12 11 10 10 10 12 14 16 18 20 21 18 12 7 8 10 12 13 12 15 13 8 12 25 27 15 12 9 10 18 23 20 14 17 23 24 26 27 26 25 20 17 17 13 7 5 4 5 8 10 15 17 17 14 12 13 15 17 15 13 11 10 8 6 4 6 6 11 14 13 10 7 7 5 6 6 5 8 7 8 8 8 9 9 10 11
11 10 11 10 10 9 8 10 13 15 17 19 22 21 13 5 5 8 10 11 10 12 15 13 8 7 15 19 13 6 11 18 23 21 14 14 19 21 23 24 26 26 21 16 15 14 10 8 9 9 5 5 11 13 10 5 4 6 7 13 13 11 12 12 7 5 1 3 3 0 7 9 9 7 6 4 4 5 5 6 6 7 6 6 7 7 9 10
10 10 10 9 9 7 6 8 10 12 15 17 20 23 16 3 3 6 8 11 12 11 10 14 14 8 7 9 8 11 15 19 23 19 15 14 14 16 19 21 22 24 23 18 15 17 19 22 22 14 6 5 7 7 7 1 1 3 3 6 7 7 9 11 8 6 2 2 4 4 2 4 5 4 4 3 3 3 5 6 4 5 4 5 5 6 8 9
11 10 9 8 8 7 5 5 8 9 12 15 17 23 18 4 2 5 8 12 14 11 8 8 10 13 12 5 2 15 19 20 25 22 18 16 11 12 14 17 19 21 23 21 18 18 22 27 23 11 7 7 4 4 7 3 2 2 1 2 2 2 4 7 9 8 1 2 5 4 2 3 4 3 4 3 3 3 5 5 4 4 4 4 5 5 7 9
12 11 9 8 7 5 5 5 7 8 10 12 13 19 21 7 2 3 5 8 13 12 8 8 7 8 9 5 2 15 20 21 27 27 21 17 14 11 10 13 16 17 20 21 19 19 24 26 16 7 5 3 2 5 6 4 3 2 0 2 2 1 2 3 7 9 3 1 5 4 2 4 5 5 5 3 2 2 3 5 3 4 3 4 4 5 6 8
13 13 11 10 8 7 7 8 10 12 12 12 8 12 22 15 1 3 2 4 9 13 9 7 8 5 5 3 4 12 17 20 24 26 20 14 16 13 8 8 8 11 15 17 18 19 23 21 8 3 4 2 2 4 5 4 3 3 2 3 2 1 2 1 5 10 7 3 2 3 1 4 4 6 6 3 3 3 2 4 3 3 3 3 4 4 5 6
14 14 13 12 11 9 9 10 11 13 11 8 5 4 16 24 8 4 2 3 2 8 11 12 9 7 6 5 5 8 13 18 21 27 22 12 14 15 10 6 5 8 7 10 16 14 13 9 1 1 6 5 4 1 4 4 3 3 2 3 2 2 1 0 2 8 10 4 2 2 2 4 5 8 7 5 5 4 3 4 3 3 2 2 3 3 4 4
15 14 14 13 13 11 11 10 11 14 12 5 3 2 4 18 20 12 8 3 1 2 7 14 11 6 5 8 6 10 16 17 19 26 25 13 10 15 13 8 6 8 3 4 11 9 5 3 1 5 7 7 7 5 3 4 1 2 2 3 3 2 3 3 2 6 10 4 0 1 3 5 6 8 8 7 6 5 5 4 3 3 2 2 2 2 3 3
15 14 14 14 14 13 11 11 11 14 13 4 0 1 1 4 15 25 30 22 8 4 3 9 9 2 2 6 8 15 15 12 15 23 27 17 8 10 12 10 6 4 2 1 6 7 3 1 3 6 7 7 8 7 5 3 3 2 3 3 4 3 3 2 2 4 7 4 2 2 1 5 7 8 8 8 7 6 6 5 4 4 3 3 2 2 2 2
15 14 13 13 15 14 12 11 12 13 13 6 1 1 1 1 3 10 23 23 10 5 4 3 4 1 2 3 12 17 9 4 9 23 31 20 7 6 10 8 3 4 5 1 3 4 2 5 6 5 4 5 5 4 4 4 4 2 3 4 3 2 3 1 1 3 3 3 1 2 2 4 7 8 9 9 7 8 8 7 6 5 5 4 4 3 3 2
15 15 13 13 14 15 14 11 12 13 12 7 4 4 2 2 3 2 4 9 6 7 6 3 2 2 3 4 13 17 6 2 5 23 35 21 5 4 7 7 2 4 5 1 1 2 1 7 6 3 3 3 3 2 2 3 3 1 2 2 2 1 2 0 2 4 3 3 1 1 3 6 8 8 9 9 9 10 10 9 8 7 6 5 4 5 4 3
14 15 13 11 11 14 14 13 13 11 10 10 12 12 5 2 5 6 2 4 5 6 4 3 3 3 3 3 12 14 4 2 6 21 33 22 10 6 4 6 6 5 4 2 2 1 5 7 3 3 2 2 1 1 1 1 1 1 1 0 0 2 2 2 1 3 2 3 2 4 6 8 10 10 11 11 11 10 10 10 9 8 8 7 6 6 5 4
14 14 14 11 9 11 13 14 12 8 10 15 17 13 7 7 7 6 2 3 3 3 2 3 2 4 5 2 13 14 3 6 6 14 28 19 8 5 3 7 9 6 7 6 2 3 5 5 4 3 1 2 1 1 1 2 1 1 1 2 1 2 3 2 1 3 3 3 3 3 6 8 10 11 12 13 13 10 10 11 9 8 8 8 7 5 5 6
13 13 14 12 9 8 9 11 9 9 13 18 18 13 9 7 6 4 2 1 2 1 1 2 2 3 4 3 13 11 3 5 3 9 22 15 3 3 3 5 6 7 8 9 9 9 7 5 4 2 2 1 1 3 1 2 1 1 1 2 1 1 3 2 2 5 4 3 2 3 6 8 9 13 13 12 13 12 11 11 11 10 9 8 7 6 7 7
14 13 13 13 9 5 5 8 10 11 13 14 13 11 8 6 3 2 1 1 1 1 1 1 2 4 4 5 13 7 2 3 3 7 14 12 5 3 1 1 3 5 3 5 9 9 7 4 3 1 2 1 0 2 4 3 2 2 0 1 1 1 3 5 5 5 4 4 2 2 6 4 5 11 13 10 12 14 13 13 14 13 11 10 8 8 9 8
15 13 13 13 11 6 3 4 7 7 7 8 7 7 5 5 4 3 1 1 2 2 3 1 1 7 7 8 11 3 2 2 3 7 12 11 6 1 1 1 1 3 0 1 4 4 4 3 2 2 2 2 1 2 3 4 3 1 1 1 1 2 4 6 4 4 4 2 1 1 5 5 2 6 9 10 13 15 14 14 14 12 11 10 9 9 8 8
15 14 13 14 13 8 3 2 3 3 3 4 3 3 3 2 3 3 1 1 2 1 4 4 2 7 7 9 11 2 1 5 3 6 12 12 7 1 1 4 1 3 1 0 1 2 2 3 4 4 1 1 1 2 2 3 4 1 1 1 3 5 7 5 4 5 3 3 2 4 3 6 7 3 1 6 11 13 13 14 14 12 11 10 9 9 8 8
14 14 13 13 14 13 8 3 4 5 4 1 1 1 2 2 2 2 0 1 2 1 1 3 2 5 6 8 11 5 1 7 3 5 11 12 9 1 3 6 2 2 1 3 1 3 2 5 7 5 3 2 1 2 2 3 3 2 1 3 5 5 5 4 4 4 1 4 3 4 3 5 7 2 3 1 7 10 13 14 14 13 12 11 10 10 9 8
14 14 14 12 11 13 12 9 9 7 4 2 1 1 1 3 2 1 1 1 1 1 1 3 3 4 6 5 7 6 3 4 3 6 10 9 10 5 4 4 2 4 2 2 3 4 2 4 4 4 4 4 3 3 3 3 2 3 1 2 2 2 2 2 3 2 1 3 3 2 3 4 6 2 2 2 3 7 10 11 12 13 13 12 11 9 9 8
13 13 15 13 9 8 9 12 12 7 4 3 2 1 1 3 1 1 2 0 1 0 1 3 2 3 7 3 4 7 6 5 3 6 5 3 6 7 4 1 1 3 3 5 7 4 2 2 0 2 3 3 4 3 2 2 2 2 2 3 3 2 1 1 1 1 2 3 0 3 0 3 4 1 2 2 1 2 4 5 9 12 14 13 11 9 7 6
13 13 14 13 12 9 5 8 10 5 4 3 1 3 3 2 0 2 1 0 0 1 0 3 2 2 5 3 3 6 5 5 6 7 6 3 5 7 4 2 1 1 1 4 5 3 3 2 1 1 1 3 3 2 1 2 3 2 3 4 3 2 2 2 1 1 4 2 2 2 2 4 5 2 2 2 1 2 4 4 6 11 13 12 10 7 6 5
12 13 13 13 13 13 8 5 7 5 2 2 2 3 1 0 1 1 1 1 1 1 1 2 1 2 3 2 4 6 4 4 6 6 5 5 6 7 6 5 3 2 1 3 3 1 3 2 2 0 2 2 4 2 2 3 2 3 3 3 4 2 1 2 1 1 3 1 2 1 3 4 8 6 3 5 4 4 5 5 6 7 10 12 9 7 5 4
10 11 12 12 11 13 12 8 7 4 2 2 2 1 1 1 1 1 1 2 2 3 2 2 2 2 2 0 4 5 2 2 5 4 3 3 4 4 5 8 6 3 2 4 4 3 2 2 2 0 2 3 6 3 2 1 3 5 3 4 4 3 3 3 2 1 2 1 2 0 3 5 7 3 4 6 6 6 6 6 6 5 8 11 8 5 4 4
7 9 10 11 11 11 12 10 8 5 3 2 1 0 2 1 0 1 1 2 2 3 2 2 2 2 3 3 3 4 1 2 4 5 3 2 3 3 4 8 9 4 2 2 2 3 2 1 3 3 2 5 5 4 3 3 3 3 1 3 2 3 3 4 2 2 3 3 1 1 1 5 4 2 3 4 4 4 4 2 1 1 5 6 4 3 3 4
4 7 9 11 12 11 11 10 8 6 2 1 1 2 2 0 1 1 1 1 0 1 1 1 2 1 3 3 1 2 1 2 3 4 5 4 2 3 3 5 9 6 2 2 1 1 3 1 2 2 3 4 4 2 1 3 1 1 1 2 1 2 2 3 1 2 2 4 3 3 3 4 1 4 4 3 2 4 4 3 3 4 4 2 3 4 4 4
4 5 7 12 13 12 11 10 8 5 1 0 1 2 1 0 1 1 1 1 0 1 1 1 1 1 2 1 1 1 1 1 2 2 3 3 1 2 2 2 5 5 3 2 1 1 3 1 2 1 0 2 3 2 1 3 2 1 1 1 2 2 2 2 0 2 1 3 2 2 4 5 0 3 4 3 3 3 2 1 2 3 2 0 3 4 4 4
4 4 5 11 15 12 11 11 7 3 0 1 2 2 1 0 1 0 1 1 1 1 1 1 1 2 1 1 2 3 2 1 2 2 1 1 1 2 1 1 1 2 2 1 0 1 3 2 1 1 1 2 2 3 1 1 3 3 2 2 2 1 0 1 2 1 2 4 2 1 6 7 2 1 1 3 3 1 3 3 2 2 2 3 5 5 5 6
3 3 3 10 16 13 11 11 6 1 1 3 3 2 1 1 0 1 0 0 1 1 1 1 1 2 1 1 2 4 5 2 2 3 1 1 1 1 1 0 1 1 1 2 1 2 2 3 1 1 1 1 0 3 1 2 1 3 2 2 0 1 0 0 2 3 3 5 4 2 6 7 3 1 2 4 6 6 4 2 3 4 4 5 6 7 9 9
3 2 1 10 16 13 11 10 4 1 2 2 2 2 1 1 0 1 1 1 1 1 1 1 1 2 1 2 2 2 4 3 2 2 1 2 1 1 1 1 0 1 1 1 1 1 1 2 0 2 1 1 1 1 2 1 2 1 1 1 1 1 2 2 1 2 3 5 5 3 3 4 1 1 3 6 7 8 7 5 3 4 5 6 8 9 10 10
3 1 1 10 16 12 11 9 4 3 3 2 1 1 1 0 1 1 1 1 1 0 1 2 2 1 1 1 2 1 3 3 2 2 1 2 1 1 0 1 1 2 2 1 1 0 0 1 2 1 0 2 0 2 3 4 2 1 1 0 1 1 1 2 1 1 2 4 4 3 5 4 1 2 3 5 6 4 3 3 4 4 6 7 8 10 10 10
2 1 1 11 16 11 8 8 6 3 2 2 1 1 1 1 2 2 1 1 1 1 1 2 2 2 2 1 1 1 1 2 2 2 1 1 1 0 1 1 2 3 2 1 1 2 1 1 3 4 3 2 1 3 3 4 3 3 2 1 1 1 1 3 3 1 1 3 2 3 7 7 1 1 2 3 3 3 2 2 6 8 10 11 11 12 12 12
1 1 2 11 16 9 6 5 3 2 2 2 2 1 1 1 2 2 1 0 1 0 1 2 3 2 2 1 1 1 0 1 1 1 1 0 1 1 2 2 2 3 3 1 1 2 1 0 2 4 4 3 3 2 2 2 1 2 2 1 1 1 1 3 4 0 0 2 0 0 5 5 0 2 2 2 2 1 1 4 9 10 11 12 12 13 13 13
1 0 2 12 15 7 4 4 1 2 3 2 2 2 2 2 1 1 1 1 1 1 1 2 1 1 1 1 2 2 2 1 1 1 1 1 1 1 2 2 1 2 1 1 0 0 1 1 2 4 3 0 0 1 1 1 0 1 1 0 1 1 1 2 2 2 2 3 2 2 5 4 1 2 1 1 2 3 6 9 12 12 11 12 13 13 13 13
1 1 1 12 14 3 2 2 1 2 2 1 2 3 2 2 3 2 2 2 1 0 1 2 0 1 1 1 2 2 2 1 1 1 1 2 1 2 2 1 1 1 0 1 1 1 1 1 1 5 4 0 1 1 1 1 1 2 1 2 2 2 4 2 1 2 3 6 6 6 8 4 1 2 2 3 5 9 12 14 15 14 12 12 12 12 12 13
1 0 2 8 13 8 3 0 2 4 2 1 3 2 1 2 2 2 1 1 2 1 1 2 0 1 3 2 2 2 1 1 1 1 1 2 1 1 2 1 1 0 1 1 1 1 2 1 1 3 4 3 4 3 2 2 2 3 1 3 4 4 4 2 1 2 5 5 7 7 8 6 5 6 8 9 12 14 15 15 16 15 14 12 11 11 11 12
0 1 1 4 8 8 3 1 2 4 3 3 3 1 1 2 1 1 1 1 0 1 1 2 1 2 2 1 1 2 0 1 1 1 2 2 2 0 1 1 1 1 3 5 4 1 1 1 3 4 4 6 7 4 1 2 5 6 5 5 6 6 6 4 3 5 5 4 7 11 13 14 15 15 15 15 15 16 16 16 17 16 15 13 12 12 12 12
0 1 1 1 2 3 2 2 3 3 2 2 2 2 2 2 1 0 0 0 0 0 1 1 2 2 2 2 2 1 1 1 1 1 2 2 1 0 1 1 1 2 1 3 2 1 1 2 2 4 7 9 9 7 2 0 7 11 9 8 7 7 8 7 9 9 4 5 9 8 9 14 16 15 16 16 16 16 15 16 16 15 15 14 13 14 15 15
1 1 0 1 1 1 1 2 2 4 3 2 1 2 3 3 2 2 1 0 0 1 1 1 2 3 2 2 2 2 1 1 1 2 2 1 1 1 0 1 1 2 2 1 1 1 1 3 2 2 6 9 8 10 7 4 9 12 11 10 11 10 11 12 15 15 9 9 12 7 8 16 17 16 18 18 16 16 16 16 16 15 15 15 15 16 17 16
2 2 1 2 0 1 1 1 3 4 4 3 2 2 3 4 4 2 1 1 1 1 1 2 3 4 3 1 1 1 2 1 1 1 3 2 2 3 1 1 1 1 1 2 1 0 2 2 2 1 7 10 8 9 7 6 9 12 12 12 13 14 15 16 17 17 15 16 18 17 19 20 18 17 18 17 15 14 14 14 14 15 15 15 15 16 16 16
1 1 1 1 2 2 0 0 2 2 2 1 1 2 3 5 5 3 1 2 2 2 3 3 1 3 3 1 1 1 2 2 2 2 4 3 2 3 2 1 3 1 1 2 1 1 2 1 3 2 5 9 6 4 3 4 8 12 14 14 14 13 14 15 16 14 13 15 18 19 20 17 14 15 15 14 12 11 12 14 15 15 14 14 15 16 17 18
1 2 2 3 3 1 1 1 1 1 1 1 1 3 3 5 6 5 3 1 1 2 4 3 4 5 2 0 4 4 2 3 2 0 4 3 1 2 2 2 4 4 2 2 1 1 2 1 2 2 4 5 2 3 4 7 10 13 15 14 12 9 7 9 9 8 8 11 13 13 12 11 9 9 10 11 12 12 14 15 15 14 14 15 16 18 18 18
2 2 1 2 2 0 1 1 0 1 1 1 1 3 3 3 5 5 3 2 2 1 2 3 5 4 1 2 5 5 2 2 1 1 2 1 1 1 1 2 4 4 4 4 1 1 2 2 2 0 4 3 1 2 4 7 10 8 5 4 5 6 5 6 8 9 11 9 8 8 7 9 10 11 12 13 14 13 14 14 14 15 16 16 16 17 18 18
Wind_Direction
47 46 45 44 43 40 41 40 41 39 39 40 36 36 35 34 32 28 23 15 13 17 25 22 11 316 241 238 259 329 8 17 16 22 29 14 359 359 357 353 346 355 358 10 34 30 32 42 25 35 62 50 23 360 38 19 5 355 74 94 91 75 67 43 58 88 105 107 92 76 79 90 88 76 88 77 65 73 74 68 71 70 65 62 56 41 26 22
49 48 46 45 43 40 42 40 41 39 37 38 36 37 34 32 30 26 21 13 5 1 11 17 14 8 236 228 239 265 334 12 16 21 15 5 5 5 5 3 357 3 15 29 31 19 36 32 6 46 67 56 22 29 66 17 20 44 70 85 71 69 67 56 74 86 96 103 94 76 72 73 70 70 82 82 69 66 71 65 64 67 59 55 47 39 34 28
49 49 46 44 42 41 43 42 43 39 37 40 39 38 32 31 29 25 21 15 5 354 0 7 18 27 49 216 230 246 260 331 17 14 1 1 6 7 14 15 10 23 37 41 38 35 46 17 22 62 71 59 32 52 66 21 16 32 55 85 78 87 80 66 74 80 90 100 96 83 75 67 55 55 82 89 76 58 58 54 50 57 51 50 47 43 39 34
50 48 46 43 42 42 44 45 43 40 40 46 42 35 29 29 27 24 20 16 9 358 359 351 19 35 44 93 223 228 249 309 21 359 351 359 4 8 20 25 27 41 53 53 52 52 50 44 53 59 66 66 51 56 51 27 46 42 52 89 93 98 84 65 70 74 83 92 93 90 80 70 54 45 56 84 79 57 50 47 44 53 49 49 52 48 45 41
50 47 45 42 42 42 43 45 43 44 47 49 38 26 24 25 24 23 20 18 13 7 10 347 12 39 46 48 93 207 248 17 8 344 348 358 3 10 22 30 38 47 57 59 50 47 48 58 64 55 53 61 59 63 51 43 87 74 57 77 87 98 89 73 71 66 77 90 88 84 73 74 67 49 46 58 74 63 46 49 49 54 53 52 56 55 55 53
49 46 44 41 41 43 43 44 42 44 43 34 21 14 18 21 21 23 22 22 18 16 22 34 309 29 45 50 63 74 72 75 335 336 348 358 4 13 25 33 40 51 59 53 41 49 51 54 64 63 63 63 63 70 64 48 91 94 66 65 72 81 88 84 74 67 82 91 82 79 78 87 87 66 51 59 69 68 58 58 59 60 62 63 61 57 59 58
49 44 43 41 42 46 44 45 41 37 29 16 6 5 14 20 21 21 23 27 25 26 27 36 46 290 34 44 53 63 70 40 333 339 352 2 11 17 28 38 42 51 52 38 29 47 54 55 62 72 79 73 72 79 77 65 74 95 89 74 74 75 82 82 76 77 80 82 82 85 81 72 77 77 60 60 64 63 63 61 61 64 65 72 71 66 66 63
48 44 43 41 44 49 47 47 41 36 27 18 10 4 13 20 20 20 23 26 28 34 33 33 32 8 83 11 27 55 58 353 338 347 358 7 20 25 30 38 43 49 45 33 23 34 51 56 49 59 79 81 88 89 88 76 63 82 98 92 86 81 81 81 79 82 78 80 87 80 74 67 76 81 65 59 60 58 63 61 59 65 69 72 71 70 71 68
48 46 43 41 46 52 54 53 48 43 37 31 24 13 12 16 19 22 23 23 26 35 40 47 53 64 83 106 325 59 26 345 345 355 4 12 25 35 39 35 41 50 47 39 34 34 48 59 46 55 82 87 90 83 88 88 68 82 102 100 94 87 80 79 72 71 69 74 88 78 71 68 76 80 61 54 52 56 58 58 57 65 68 68 67 66 65 66
46 44 41 40 45 55 61 61 58 53 45 40 33 21 12 10 22 28 24 25 26 25 33 51 59 66 77 104 75 63 359 348 1 6 9 20 30 41 43 39 44 52 48 42 37 29 30 58 55 60 75 75 74 69 72 92 110 108 104 101 97 93 81 75 73 65 64 62 71 83 77 56 48 86 74 51 42 51 54 57 56 65 68 65 68 67 63 64
40 37 36 35 41 52 62 63 59 51 44 38 32 24 13 8 26 30 25 24 25 27 30 40 49 56 60 62 69 57 354 356 9 15 20 29 37 41 39 38 44 49 50 45 33 24 22 43 58 62 68 76 77 75 76 92 121 116 106 102 96 94 73 53 64 48 60 70 51 85 86 58 43 64 75 52 42 48 57 64 58 65 70 67 69 68 67 66
34 31 29 32 37 43 54 58 53 46 40 33 27 21 14 21 34 24 26 27 26 29 36 41 35 41 49 55 64 29 0 6 10 22 34 38 42 43 41 42 45 48 52 47 34 38 55 61 63 62 57 104 90 82 92 98 115 115 109 103 102 101 61 30 32 10 20 108 331 59 94 57 42 59 73 62 64 64 70 77 69 71 72 72 75 71 71 69
30 27 25 28 26 29 44 54 52 44 36 29 22 16 15 39 35 24 40 37 32 31 35 43 50 71 63 59 54 17 15 15 15 28 43 45 50 48 46 48 48 53 57 55 46 51 70 77 74 71 39 72 89 91 123 146 355 102 81 93 115 117 56 23 17 346 307 70 336 257 174 62 62 75 97 92 96 110 101 98 89 88 86 83 85 81 78 73
28 24 19 18 18 23 30 39 39 30 26 23 17 15 17 37 34 39 60 41 33 31 28 30 47 69 65 88 58 16 18 22 23 26 30 37 52 53 50 53 54 57 58 59 59 59 77 82 79 83 47 48 87 120 120 79 15 90 65 68 98 119 59 30 21 357 311 46 352 267 240 116 135 133 130 136 136 142 128 123 116 110 106 97 98 91 86 77
24 20 14 10 8 7 358 351 351 348 354 359 5 16 20 34 140 76 70 35 31 29 24 31 44 71 70 96 44 8 14 23 21 16 15 24 32 31 31 47 53 57 56 54 56 61 73 77 69 66 60 45 120 122 106 78 54 19 280 121 46 79 112 53 36 20 7 354 348 295 249 124 156 164 145 157 161 171 148 135 132 122 115 107 104 94 92 85
21 17 14 6 357 348 334 325 327 325 324 331 344 19 26 31 178 185 54 8 32 35 35 38 37 68 88 68 349 359 11 11 7 9 12 19 24 16 5 31 45 51 56 48 48 56 64 69 61 32 62 51 52 101 107 99 84 15 6 108 34 43 137 117 63 34 1 287 324 322 201 134 161 166 154 176 178 195 174 145 148 135 122 110 101 94 96 92
21 16 13 8 1 353 343 341 344 341 331 332 341 11 35 36 34 211 288 323 24 42 48 40 36 87 79 12 342 352 351 347 355 6 10 13 26 25 22 32 2 7 41 42 39 42 45 52 106 68 56 46 13 319 120 97 92 60 51 97 49 15 50 237 84 24 359 306 276 328 179 141 141 159 165 182 185 205 195 166 164 153 129 105 98 94 96 93
24 18 14 12 6 1 357 357 1 1 353 338 344 291 45 41 46 63 54 57 207 355 41 24 22 105 61 13 357 326 320 331 353 4 7 8 25 30 33 41 357 336 347 30 23 17 12 19 89 73 48 34 22 354 74 84 74 104 99 117 111 72 48 40 29 1 358 354 15 94 159 144 142 165 176 182 189 207 199 188 192 178 165 143 130 117 111 105
26 21 19 17 13 9 3 360 5 10 7 355 88 83 207 21 46 53 49 57 63 12 46 4 1 122 25 359 330 320 309 322 359 7 7 7 9 25 30 32 19 6 42 41 16 6 356 36 44 58 39 20 23 6 17 19 346 71 94 108 122 119 87 39 352 358 353 353 46 36 153 161 169 180 185 187 193 213 211 204 209 198 190 183 175 158 150 147
25 24 23 22 21 17 11 8 9 11 14 25 162 68 78 324 16 41 38 49 60 34 65 12 358 70 1 339 328 339 329 305 10 10 7 6 352 10 17 5 357 53 54 357 22 1 328 73 58 44 27 2 6 360 343 315 312 31 89 95 102 117 111 145 293 9 340 307 40 3 301 195 191 194 193 193 197 215 219 211 211 205 199 197 193 187 187 182
24 23 24 24 24 22 21 22 20 19 24 42 91 72 80 1 48 126 26 50 59 37 58 43 9 359 334 313 338 351 345 256 8 8 9 11 358 355 360 349 357 55 36 296 314 322 5 71 63 8 353 331 337 339 275 265 283 5 69 84 86 81 67 84 304 356 340 276 185 152 247 223 213 212 199 197 207 216 216 211 211 206 203 205 205 206 203 200
23 21 22 21 24 25 25 28 30 37 47 67 82 80 91 93 96 128 132 95 63 29 56 40 35 19 324 302 353 350 320 334 1 5 7 9 17 24 350 13 53 51 10 297 223 70 66 69 49 350 341 259 273 294 244 220 250 29 60 303 37 32 340 270 283 353 347 277 230 184 229 232 219 217 211 207 213 218 215 212 211 205 206 207 205 209 210 210
23 21 20 18 22 29 32 35 32 41 61 73 80 83 96 95 108 130 102 111 89 24 30 23 44 15 353 19 2 351 3 22 351 355 0 360 19 32 358 30 50 47 21 14 43 82 74 58 15 350 244 213 132 76 240 199 178 37 354 295 337 31 316 254 93 355 327 306 307 233 240 248 226 216 216 215 216 219 216 215 216 213 212 211 207 212 215 215
22 21 21 19 21 37 47 47 46 59 70 79 83 87 106 104 105 118 79 115 96 61 56 46 112 33 16 7 356 354 65 40 341 339 355 4 16 332 11 38 40 53 39 30 61 79 64 35 3 327 199 181 105 70 29 242 165 81 354 329 346 359 316 299 329 320 281 232 277 266 258 254 224 216 219 214 212 219 215 213 218 218 220 221 219 227 228 226
21 21 23 20 22 44 62 54 58 74 77 79 84 88 100 97 80 97 117 125 55 52 95 115 125 34 11 344 359 6 154 56 37 342 352 10 2 305 82 34 6 57 42 21 65 78 54 26 341 307 124 89 237 63 26 306 236 157 148 12 345 316 302 295 301 298 269 221 166 299 285 265 195 212 222 208 204 216 215 214 218 215 216 219 221 226 226 229
19 20 22 23 24 33 65 54 57 87 82 69 87 99 92 81 64 51 123 120 54 3 358 9 22 12 360 345 353 340 179 43 25 4 5 11 357 264 110 349 19 73 88 9 73 87 53 36 7 23 113 99 101 87 32 317 279 212 147 130 183 275 271 277 276 256 273 295 123 231 284 291 248 221 221 207 206 213 213 215 220 216 213 213 216 223 221 224
19 18 20 25 26 31 65 74 55 81 68 58 106 112 89 79 52 27 291 121 52 348 348 350 338 0 360 351 346 309 148 336 312 26 16 6 356 251 42 20 42 62 59 237 85 82 28 19 34 31 78 117 92 68 24 317 297 305 112 253 271 274 264 257 243 236 281 329 229 193 246 283 278 267 220 213 214 216 217 218 220 218 217 214 216 223 225 228
20 18 18 23 28 38 54 70 58 56 47 58 121 117 111 43 1 323 229 124 23 359 359 338 329 357 355 357 8 49 89 320 322 20 359 8 19 352 77 51 43 60 52 259 64 83 8 19 32 14 5 39 19 359 341 287 300 18 65 288 290 284 267 246 234 231 290 317 267 178 178 272 270 233 82 153 219 226 228 224 220 217 216 216 219 225 230 235
19 20 21 22 28 40 50 58 60 58 46 53 67 104 123 9 326 253 73 145 307 40 141 311 329 356 343 345 22 40 16 353 25 341 338 18 28 25 82 66 72 89 61 342 67 99 62 35 23 357 14 13 340 335 307 268 313 3 323 270 268 263 253 229 239 228 185 271 282 128 153 273 282 243 123 138 218 241 239 226 220 216 211 212 216 223 230 238
20 22 24 25 32 36 45 50 50 54 49 53 70 29 333 328 281 163 47 217 296 35 209 344 348 324 334 347 41 22 15 23 351 325 341 33 13 32 84 211 216 98 78 67 72 93 90 78 217 24 23 327 305 311 297 266 304 338 266 240 220 200 197 203 239 263 244 248 271 62 78 269 291 289 132 134 182 277 268 234 216 210 206 206 209 215 226 237
22 25 24 27 36 36 43 43 35 43 46 41 35 348 319 296 274 106 68 239 27 283 239 28 8 334 4 43 43 7 10 16 349 352 18 16 358 24 42 324 328 89 123 76 70 98 114 124 145 53 5 316 292 246 194 222 247 263 243 257 257 208 182 203 167 181 245 249 93 49 325 249 250 254 90 63 22 310 286 268 234 214 203 197 199 207 221 233
25 25 24 26 33 37 46 37 19 34 35 359 358 337 292 259 9 67 325 326 6 16 48 23 356 26 25 83 41 359 347 11 11 18 17 11 27 32 31 19 343 309 39 35 24 97 118 95 24 239 176 359 316 256 171 194 247 292 273 294 304 297 271 243 201 196 247 318 94 37 342 266 247 260 358 15 355 320 291 284 284 245 202 186 189 201 209 225
28 26 24 25 26 30 33 23 8 15 1 352 359 338 101 69 43 117 298 316 359 11 25 345 344 5 324 11 40 358 335 4 358 19 13 1 44 64 64 40 4 320 7 1 342 355 96 116 26 335 169 356 343 354 38 311 344 357 343 334 336 349 337 294 282 268 264 43 108 74 342 280 256 274 9 5 347 331 314 299 296 258 186 172 179 195 208 225
24 25 21 22 24 23 17 7 359 354 346 357 341 354 55 35 65 113 295 284 343 355 6 346 322 356 21 49 20 324 21 64 355 2 15 13 40 48 52 33 18 2 316 341 13 358 338 126 22 10 332 341 7 38 6 305 331 10 352 315 342 27 333 296 314 312 302 330 289 163 237 269 268 43 32 352 340 345 342 343 354 125 137 144 166 187 216 234
351 5 9 15 17 14 7 358 352 347 338 351 30 53 68 339 221 163 296 286 321 334 2 353 293 358 42 48 28 305 276 52 21 16 25 34 50 30 13 5 8 6 322 334 39 322 280 263 36 13 313 335 11 47 309 278 278 117 232 275 345 30 317 283 350 350 320 313 276 211 238 266 264 73 46 15 28 45 36 48 98 115 106 113 189 204 229 252
333 338 354 8 8 2 358 354 349 346 324 237 49 59 77 312 213 136 37 358 47 358 296 243 301 38 48 9 37 53 259 347 4 17 39 44 79 59 43 357 1 4 357 358 19 339 298 271 88 94 217 17 353 334 326 314 315 277 274 10 60 25 293 270 20 104 184 269 263 221 267 274 139 74 46 45 68 80 83 110 134 137 113 199 230 233 252 279
342 333 342 2 1 355 352 351 346 340 21 72 74 90 111 152 218 188 19 332 271 331 307 227 4 19 28 298 352 1 347 340 339 352 53 35 69 71 38 95 46 358 4 345 117 48 315 291 95 140 190 75 323 299 32 15 313 309 333 64 93 112 217 262 282 271 240 261 259 244 280 291 322 2 58 84 60 8 224 220 220 228 254 264 260 264 275 289
341 325 332 358 356 350 347 347 343 326 86 65 80 125 173 173 183 199 183 256 213 256 347 76 27 10 291 309 15 344 332 336 356 19 65 344 51 103 309 42 107 19 355 264 251 78 298 288 79 140 276 42 13 264 234 114 42 3 33 80 336 294 285 210 292 313 305 290 287 278 289 291 279 280 7 29 16 354 330 291 271 276 290 294 292 291 291 295
352 329 325 357 353 349 346 344 339 2 68 77 110 152 172 186 165 182 200 194 185 207 46 95 60 34 19 357 17 342 340 3 11 17 52 359 39 145 295 309 108 29 14 270 302 93 290 302 41 152 241 316 11 281 301 46 67 66 137 129 40 331 302 313 330 309 294 295 302 309 297 287 261 77 352 355 9 7 0 358 341 326 323 310 299 294 294 300
21 16 197 355 353 348 350 3 24 36 53 81 153 142 75 159 190 143 187 207 194 254 46 129 141 78 90 23 6 10 9 21 15 6 22 5 352 173 186 274 307 12 8 314 10 15 239 290 287 309 184 261 308 33 339 335 342 309 248 42 50 157 259 284 229 209 293 288 294 298 279 277 64 73 341 360 28 37 28 18 7 344 320 304 298 298 300 301
45 69 283 353 353 344 356 31 45 28 63 72 49 83 69 136 139 95 143 221 326 318 4 105 115 110 133 124 66 70 28 37 37 16 39 27 326 354 77 341 332 351 323 271 41 352 330 223 284 310 320 304 9 43 341 318 312 307 312 346 343 299 278 275 253 131 95 266 278 302 289 289 338 68 357 39 67 87 90 349 334 328 317 313 310 307 305 301
63 60 325 350 354 353 22 55 45 18 75 57 16 30 20 73 105 77 112 256 352 349 31 75 95 104 129 132 93 132 136 76 65 33 51 339 317 358 36 28 347 320 313 325 32 9 340 296 280 284 293 327 3 28 359 327 298 306 320 342 348 271 237 265 275 321 148 253 48 39 274 286 30 106 78 100 129 154 242 297 316 319 314 312 311 307 304 300
47 327 337 354 356 5 63 70 31 34 50 338 335 17 6 15 63 31 344 352 351 352 42 59 76 72 125 160 135 158 181 140 136 132 108 233 245 43 24 19 326 294 315 338 27 151 271 350 300 282 274 148 106 129 98 11 192 207 271 212 232 276 347 296 303 3 298 238 214 244 253 262 84 112 127 166 194 262 293 308 316 314 311 311 309 306 301 297
27 251 315 358 1 13 117 65 112 90 43 328 22 46 20 18 33 20 1 10 354 324 92 92 39 43 97 137 122 142 195 175 156 159 144 184 178 49 40 35 344 336 345 340 13 153 243 345 331 306 315 27 188 197 179 197 236 245 232 171 188 97 75 53 114 92 272 231 214 249 261 256 81 112 176 216 257 293 309 315 314 309 309 309 306 303 298 295
29 185 254 1 23 56 100 96 135 128 123 111 78 57 44 59 42 342 342 28 359 322 81 94 55 85 104 124 104 103 259 253 153 149 136 187 205 54 56 58 332 324 108 40 47 174 254 312 282 300 327 324 314 322 321 323 306 280 216 180 196 163 150 216 249 232 258 226 192 226 260 278 298 286 281 287 296 306 313 315 312 309 306 304 299 296 293 291
86 64 274 349 32 57 78 59 100 119 147 148 118 98 82 97 89 322 345 72 65 319 55 86 155 134 115 143 119 105 125 14 89 155 183 199 202 152 39 29 311 243 113 90 73 100 146 277 243 250 261 271 292 313 24 7 304 280 258 225 216 202 200 225 262 239 244 253 240 241 256 274 284 286 292 300 303 308 313 313 310 306 306 306 301 297 294 291
75 89 10 314 20 52 80 68 61 94 150 169 147 149 135 116 111 206 251 289 128 173 43 82 176 200 168 168 158 135 157 126 75 149 175 190 174 88 343 358 283 285 101 93 64 97 157 246 226 224 246 255 279 296 298 233 270 269 274 267 249 228 214 214 232 236 244 287 270 243 243 268 280 288 295 299 301 305 308 305 300 298 302 304 300 299 299 296
28 131 35 319 314 57 63 63 74 81 83 90 108 138 141 141 166 182 171 81 49 243 243 160 219 229 204 184 169 144 166 216 204 167 166 191 175 160 247 271 273 323 23 79 6 96 221 261 181 181 262 260 265 280 278 255 258 265 269 266 259 247 229 225 237 242 243 257 263 268 278 279 283 288 291 293 296 299 299 295 292 291 292 292 292 295 295 293
70 111 39 337 14 138 61 55 114 103 86 90 117 158 172 169 176 190 151 122 153 251 253 246 233 203 183 201 170 145 196 240 304 215 177 166 179 179 193 227 214 345 64 117 62 239 220 240 149 190 290 286 275 275 273 258 262 268 265 256 253 251 241 239 247 250 248 252 261 274 278 277 278 281 284 286 288 291 291 288 286 284 285 286 289 292 292 294
117 146 143 56 73 106 130 108 135 115 85 100 157 163 173 174 176 178 176 184 181 165 193 241 217 144 143 187 209 251 242 223 306 280 175 167 200 200 209 203 156 125 114 144 127 229 236 302 83 98 290 289 295 304 287 271 268 272 275 268 256 251 250 251 255 254 251 254 258 265 270 272 271 270 273 279 283 284 285 284 283 284 287 291 294 296 298 300
79 115 139 122 95 114 228 108 112 121 134 201 184 156 181 196 181 157 144 213 249 181 195 198 132 117 88 228 231 261 258 208 252 246 169 185 229 186 205 193 156 153 175 177 163 196 225 250 94 90 285 278 316 347 313 302 289 276 276 273 251 231 234 250 251 228 220 245 257 258 262 269 274 270 269 275 281 283 285 286 289 294 298 299 300 302 302 301
105 97 111 101 88 289 227 118 112 162 151 162 133 156 197 203 171 157 140 165 197 230 227 178 140 129 130 213 234 258 253 209 249 61 146 171 87 114 195 169 163 171 170 166 166 162 200 211 131 89 288 272 83 346 307 304 298 277 255 244 211 193 209 251 267 238 211 225 257 260 260 282 298 298 291 290 292 292 292 295 300 304 305 301 299 298 297 297